Home   Weather   Post Falls   Past weeks

Flag for USA Past Weather in Post Falls, Idaho, USA — Yesterday and Last 2 Weeks

Now
29 °F

Light snow. Ice fog.


Feels Like: 29 °F
Forecast: 33 / 40 °F
Wind: No wind

Location: Coeur d'Alene Weather Reporting System

Current Time: Jan 18, 2017 at 12:20:34 am

Latest Report: Jan 17, 2017 at 11:56 pm


Visibility: 5 mi

Pressure: 29.92 "Hg (27.52 "Hg at 664m altitude)

Humidity: 96%

Dew Point: 28 °F

Location of Post FallsLocation

Past Weather in Post Falls — Graph

°F

Post Falls Temperature Yesterday

Maximum temperature yesterday: 30 °F (at 3:56 pm)
Minimum temperature yesterday: 10 °F (at 5:19 am)
Average temperature yesterday: 22 °F

High & Low Weather Summary for the Past Weeks

 TemperatureHumidityPressure
High34 °F (Jan 9, 12:58 pm)100% (Jan 8, 10:23 pm)30.73 "Hg (Jan 8, 10:23 pm)
Low-3 °F (Jan 12, 9:56 pm)57% (Jan 11, 11:56 am)29.56 "Hg (Jan 9, 4:10 am)
Average16 °F83%30.20 "Hg
* Reported Jan 2 10:56 pm — Jan 17 10:56 pm, Post Falls, Weather by CustomWeather, © 2017

Note: Actual official high and low records may vary slightly from our data, if they occured in-between our weather recording intervals... More about our weather records

Advertising

Post Falls Weather History for the Previous 24 Hours

Scroll right to see more
 ConditionsComfort  
Time TempWeatherWind HumidityBarometerVisibility
10:56 pm
Tue, Jan 17
28 °FLight snow. Ice fog.7 mph96%29.95 "Hg5 mi
9:56 pm28 °FLight snow. Overcast.9 mph96%29.96 "Hg9 mi
8:56 pm29 °FLight snow. Overcast.12 mph89%29.95 "Hg9 mi
7:56 pm29 °FOvercast.10 mph89%29.97 "Hg10 mi
6:56 pm28 °FOvercast.8 mph93%30.00 "Hg10 mi
5:56 pm28 °FOvercast.6 mph89%30.02 "Hg10 mi
4:56 pm29 °FOvercast.8 mph89%30.03 "Hg10 mi
3:56 pm30 °FOvercast.13 mph85%30.06 "Hg10 mi
2:56 pm29 °FOvercast.9 mph89%30.06 "Hg10 mi
1:56 pm28 °FOvercast.8 mph89%30.11 "Hg9 mi
12:56 pm28 °FOvercast.5 mph85%30.15 "Hg10 mi
11:56 am27 °FOvercast.3 mph89%30.18 "Hg10 mi
10:56 am24 °FLight snow. Partly sunny.5 mph88%30.19 "Hg9 mi
9:56 am22 °FLight snow. Ice fog.5 mph92%30.21 "Hg5 mi
8:56 am20 °FIce fog.No wind92%30.22 "Hg6 mi
7:56 am17 °FOvercast.3 mph92%30.22 "Hg10 mi
7:31 am16 °FLow clouds.3 mph93%30.06 "Hg10 mi
6:56 am15 °FLight snow. Low clouds.3 mph91%30.22 "Hg9 mi
6:18 am16 °FIce fog.No wind86%30.06 "Hg3 mi
5:56 am14 °FIce fog.No wind95%30.22 "Hg0 mi
5:19 am10 °FPassing clouds.5 mph85%30.06 "Hg10 mi
4:56 am12 °FPassing clouds.No wind88%30.23 "Hg10 mi
3:56 am14 °FPassing clouds.No wind95%30.23 "Hg10 mi
2:56 am15 °FClear.8 mph87%30.25 "Hg8 mi
1:56 am16 °FOvercast.No wind96%30.28 "Hg10 mi
12:56 am11 °FPassing clouds.No wind92%30.29 "Hg10 mi
Weather by CustomWeather, © 2017

See weather overviewHow to use our weather pages